Branson, MO

8:59 PM CDT on March 30, 2017 (GMT -0500)
Branson

Weather History for KBBG - January, 2013

Change the Weather History Date:

Wednesday, January 2, 2013

  Actual Average (KHRO) Record (KHRO)
Temperature  
Mean Temperature 26 °F -  
Max Temperature 33 °F 43 °F 79 °F (1927)
Min Temperature 19 °F 25 °F -1 °F (1979)
Degree Days  
Heating Degree Days 39    
Moisture  
Dew Point 20 °F    
Average Humidity 81    
Maximum Humidity 100    
Minimum Humidity 56    
Precipitation  
Precipitation 0.00 in - - ()
Sea Level Pressure  
Sea Level Pressure 30.23 in    
Wind  
Wind Speed 1 mph (WSW)    
Max Wind Speed 7 mph    
Max Gust Speed -    
Visibility 7 miles    
Events      
Averages and records for this station are not official NWS values.
T = Trace of Precipitation, MM = Missing Value Source: NWS Daily Summary

Daily Weather History Graph

Daily Weather History Graph

Search for Another Location

Airport or City:

Trip Planner

Search our weather history database for the weather conditions in past years. The results will help you decide how hot, cold, wet, or windy it might be!

Date:

Astronomy

Jan. 02, 2013 Rise Set
Actual Time 7:25 AM CST 5:09 PM CST
Civil Twilight 6:56 AM CST 5:37 PM CST
Nautical Twilight 6:24 AM CST 6:10 PM CST
Astronomical Twilight 5:52 AM CST 6:41 PM CST
Moon 10:32 PM CST (1/2) 10:16 AM CST (1/2)
Length of Visible Light 10h 41m
Length of Day
9h 44m
Waning Gibbous, 75% of the Moon is Illuminated
Jan 2
Waning Gibbous
Jan 4
Last Quarter
Jan 11
New
Jan 18
First Quarter
Jan 26
Full

Hourly Weather History & Observations

Time (CST) Temp. Windchill Dew Point Humidity Pressure Visibility Wind Dir Wind Speed Gust Speed Precip Events Conditions
12:15 AM 23.0 °F - 21.2 °F 93% 30.22 in 5.0 mi Calm Calm - N/A   Clear
12:55 AM 21.2 °F - 19.4 °F 93% 30.22 in 5.0 mi Calm Calm - N/A   Clear
1:15 AM 21.2 °F 13.6 °F 19.4 °F 93% 30.22 in 5.0 mi NNW 5.8 mph - N/A   Clear
1:55 AM 21.2 °F - 19.4 °F 93% 30.25 in 5.0 mi Calm Calm - N/A   Clear
2:15 AM 19.4 °F - 19.4 °F 100% 30.25 in 4.0 mi Calm Calm - N/A   Clear
2:35 AM 19.4 °F - 17.6 °F 93% 30.24 in 5.0 mi Calm Calm - N/A   Clear
2:55 AM 19.4 °F - 17.6 °F 93% 30.24 in 5.0 mi Calm Calm - N/A   Clear
3:15 AM 19.4 °F - 17.6 °F 93% 30.24 in 4.0 mi Calm Calm - N/A   Clear
3:35 AM 19.4 °F - 17.6 °F 93% 30.23 in 5.0 mi Calm Calm - N/A   Mostly Cloudy
3:55 AM 19.4 °F - 17.6 °F 93% 30.23 in 6.0 mi Calm Calm - N/A   Mostly Cloudy
4:15 AM 19.4 °F - 19.4 °F 100% 30.24 in 5.0 mi Calm Calm - N/A   Overcast
4:55 AM 23.0 °F 17.0 °F 21.2 °F 93% 30.23 in 5.0 mi West 4.6 mph - N/A   Overcast
5:15 AM 21.2 °F 16.4 °F 19.4 °F 93% 30.23 in 4.0 mi WNW 3.5 mph - N/A   Overcast
5:35 AM 21.2 °F 16.4 °F 19.4 °F 93% 30.23 in 4.0 mi West 3.5 mph - N/A   Overcast
6:45 AM 21.2 °F - 19.4 °F 93% 30.24 in 4.0 mi Calm Calm - N/A   Overcast
7:45 AM 21.2 °F - 19.4 °F 93% 30.24 in 3.0 mi Calm Calm - N/A   Overcast
8:45 AM 19.4 °F 10.4 °F 19.4 °F 100% 30.23 in 2.0 mi SSE 6.9 mph - N/A   Overcast
9:45 AM 23.0 °F 17.0 °F 19.4 °F 86% 30.25 in 4.0 mi SSE 4.6 mph - N/A   Mostly Cloudy
11:52 AM 28.4 °F - 24.8 °F 86% 30.22 in 8.0 mi Calm Calm - N/A   Mostly Cloudy
12:53 PM 32.0 °F - 23.0 °F 69% 30.19 in 10.0 mi Calm Calm - N/A   Mostly Cloudy
1:50 PM 32.0 °F 27.5 °F 19.4 °F 60% 30.18 in 10.0 mi South 4.6 mph - N/A   Mostly Cloudy
2:45 PM 33.8 °F 28.6 °F 19.4 °F 56% 30.17 in 10.0 mi South 5.8 mph - N/A   Partly Cloudy
3:49 PM 33.8 °F - 21.2 °F 60% 30.18 in 10.0 mi Calm Calm - N/A   Mostly Cloudy
5:45 PM 30.2 °F - 23.0 °F 75% 30.19 in 10.0 mi Calm Calm - N/A   Scattered Clouds
6:45 PM 30.2 °F - 23.0 °F 75% 30.20 in 10.0 mi Calm Calm - N/A   Clear
7:45 PM 28.4 °F - 21.2 °F 74% 30.21 in 10.0 mi Calm Calm - N/A   Clear
8:15 PM 28.4 °F - 19.4 °F 69% 30.22 in 10.0 mi Calm Calm - N/A   Clear
8:35 PM 28.4 °F - 19.4 °F 69% 30.23 in 10.0 mi Calm Calm - N/A   Clear
8:45 PM 28.4 °F - 19.4 °F 69% 30.23 in 10.0 mi Calm Calm - N/A   Clear
8:55 PM 28.4 °F - 19.4 °F 69% 30.23 in 10.0 mi Calm Calm - N/A   Clear
9:15 PM 28.4 °F - 19.4 °F 69% 30.24 in 10.0 mi Calm Calm - N/A   Clear
9:35 PM 28.4 °F 24.6 °F 19.4 °F 69% 30.24 in 10.0 mi West 3.5 mph - N/A   Partly Cloudy
9:55 PM 28.4 °F 24.6 °F 19.4 °F 69% 30.24 in 10.0 mi WNW 3.5 mph - N/A   Scattered Clouds
10:15 PM 28.4 °F - 17.6 °F 64% 30.24 in 10.0 mi Calm Calm - N/A   Clear
10:55 PM 26.6 °F - 19.4 °F 74% 30.24 in 10.0 mi Calm Calm - N/A   Clear
11:15 PM 26.6 °F - 19.4 °F 74% 30.24 in 10.0 mi Calm Calm - N/A   Clear
11:35 PM 26.6 °F 22.6 °F 19.4 °F 74% 30.24 in 10.0 mi West 3.5 mph - N/A   Clear
11:55 PM 26.6 °F 22.6 °F 19.4 °F 74% 30.24 in 10.0 mi WNW 3.5 mph - N/A   Clear